Portada
METAR-TAF:

METAR-TAF

Aeropuertos :

Helipuerto de Algeciras

Algeciras, España

latitud: 36-07-44N, longitud: 05-26-28W, altitud: 30 m

Observación

El informe se hizo hace 10 minutos, a las 18:30 UTC
Viento 12 kt del este, variando entre noreste y sureste
Temperatura 24°C
Humedad 78%
Presión 1016 hPa
Visibilidad 10 km o más
Escasas nubes a una altura de 1900 ft

METAR: LEAG 201830Z AUTO 10012KT 050V130 9999 FEW019 24/20 Q1016

Hora: 20:40 (18:40 UTC)


TAF: falta

Observaciones y pronósticos meteorológicos de más de 4000 aeropuertos (mensajes METAR y TAF).

Los puntos amarillos y rojos representan las estaciones disponibles.

Ponga el ratón en el punto deseado para ver el nombre de la estación.

Haga clic para ver las observaciones y los pronósticos meteorológicos.

Para cambiar el mapa : haga clic en los botones verdes con una cruz de color negro para hacer un zoom, en el botón verde con un guión para alejar o en las flechas verdes para mapas adyacentes.


METAR-TAF: